Time,TemperatureF,DewpointF,PressureIn,WindDirection,WindDirectionDegrees,WindSpeedMPH,WindSpeedGustMPH,Humidity,HourlyPrecipIn,Conditions,Clouds,dailyrainin,SolarRadiationWatts/m^2,SoftwareType,DateUTC
2013-01-15 00:02:00,42.3,36.6,30.31,WSW,241,0.0,2.0,80,0.00,,,0.00,0,Wunderground v.1.15,2013-01-14 22:02:00,
2013-01-15 00:12:00,43.0,36.6,30.32,SSW,197,1.0,1.0,78,0.00,,,0.00,0,Wunderground v.1.15,2013-01-14 22:12:00,
2013-01-15 00:22:00,43.4,37.0,30.32,SSW,192,0.0,0.0,78,0.00,,,0.00,0,Wunderground v.1.15,2013-01-14 22:22:00,
2013-01-15 00:32:00,43.8,36.7,30.32,SSW,209,1.0,1.0,76,0.00,,,0.00,0,Wunderground v.1.15,2013-01-14 22:32:00,
2013-01-15 00:42:00,43.5,36.4,30.31,SSW,209,0.0,0.0,76,0.00,,,0.00,0,Wunderground v.1.15,2013-01-14 22:42:00,
2013-01-15 00:52:00,43.9,37.5,30.31,SSW,196,1.0,2.0,78,0.00,,,0.00,0,Wunderground v.1.15,2013-01-14 22:52:00,
2013-01-15 01:02:00,44.2,36.4,30.31,SSW,199,2.0,2.0,74,0.00,,,0.00,0,Wunderground v.1.15,2013-01-14 23:02:00,
2013-01-15 01:12:00,44.3,35.8,30.31,South,169,1.0,3.0,72,0.00,,,0.00,0,Wunderground v.1.15,2013-01-14 23:12:00,
2013-01-15 01:22:00,44.5,35.7,30.31,SSW,213,2.0,2.0,71,0.00,,,0.00,0,Wunderground v.1.15,2013-01-14 23:22:00,
2013-01-15 01:32:00,44.5,35.7,30.32,SSW,197,2.0,2.0,71,0.00,,,0.00,0,Wunderground v.1.15,2013-01-14 23:32:00,
2013-01-15 01:42:00,44.3,35.5,30.32,SW,214,2.0,2.0,71,0.00,,,0.00,0,Wunderground v.1.15,2013-01-14 23:42:00,
2013-01-15 01:52:00,44.5,36.0,30.32,SW,225,2.0,3.0,72,0.00,,,0.00,0,Wunderground v.1.15,2013-01-14 23:52:00,
2013-01-15 02:02:00,44.3,35.5,30.32,SW,214,3.0,3.0,71,0.00,,,0.00,0,Wunderground v.1.15,2013-01-15 00:02:00,
2013-01-15 02:12:00,44.4,35.6,30.32,SSW,211,2.0,2.0,71,0.00,,,0.00,0,Wunderground v.1.15,2013-01-15 00:12:00,
2013-01-15 02:22:00,44.3,35.5,30.32,SSW,213,2.0,3.0,71,0.00,,,0.00,0,Wunderground v.1.15,2013-01-15 00:22:00,
2013-01-15 02:42:00,44.3,35.8,30.32,SSW,201,2.0,2.0,72,0.00,,,0.00,0,Wunderground v.1.15,2013-01-15 00:42:00,
2013-01-15 02:52:00,44.1,35.3,30.32,SSW,205,2.0,2.0,71,0.00,,,0.00,0,Wunderground v.1.15,2013-01-15 00:52:00,
2013-01-15 03:02:00,44.1,35.3,30.31,SSW,194,2.0,2.0,71,0.00,,,0.00,0,Wunderground v.1.15,2013-01-15 01:02:00,
2013-01-15 03:12:00,44.1,35.3,30.31,SSW,203,1.0,1.0,71,0.00,,,0.00,0,Wunderground v.1.15,2013-01-15 01:12:00,
2013-01-15 03:22:00,44.1,35.3,30.30,SSW,203,1.0,1.0,71,0.00,,,0.00,0,Wunderground v.1.15,2013-01-15 01:22:00,
2013-01-15 03:32:00,43.9,35.1,30.30,South,188,1.0,1.0,71,0.00,,,0.00,0,Wunderground v.1.15,2013-01-15 01:32:00,
2013-01-15 03:42:00,43.9,35.5,30.30,SW,230,1.0,2.0,72,0.00,,,0.00,0,Wunderground v.1.15,2013-01-15 01:42:00,
2013-01-15 03:52:00,44.1,35.3,30.30,SW,223,1.0,2.0,71,0.00,,,0.00,0,Wunderground v.1.15,2013-01-15 01:52:00,
2013-01-15 04:02:00,44.3,35.1,30.30,SW,219,1.0,1.0,70,0.00,,,0.00,0,Wunderground v.1.15,2013-01-15 02:02:00,
2013-01-15 04:12:00,44.4,35.2,30.29,SW,221,1.0,1.0,70,0.00,,,0.00,0,Wunderground v.1.15,2013-01-15 02:12:00,
2013-01-15 04:22:00,44.6,35.4,30.29,SW,219,1.0,1.0,70,0.00,,,0.00,0,Wunderground v.1.15,2013-01-15 02:22:00,
2013-01-15 04:32:00,44.6,35.1,30.29,South,190,0.0,0.0,69,0.00,,,0.00,0,Wunderground v.1.15,2013-01-15 02:32:00,
2013-01-15 04:42:00,44.7,34.8,30.30,South,188,1.0,1.0,68,0.00,,,0.00,0,Wunderground v.1.15,2013-01-15 02:42:00,
2013-01-15 04:52:00,44.7,35.1,30.30,SW,218,1.0,1.0,69,0.00,,,0.00,0,Wunderground v.1.15,2013-01-15 02:52:00,
2013-01-15 05:02:00,44.6,35.1,30.30,SW,219,1.0,1.0,69,0.00,,,0.00,0,Wunderground v.1.15,2013-01-15 03:02:00,
2013-01-15 05:12:00,44.6,35.8,30.30,SW,219,1.0,1.0,71,0.00,,,0.00,0,Wunderground v.1.15,2013-01-15 03:12:00,
2013-01-15 05:22:00,44.6,35.1,30.30,SSW,199,0.0,0.0,69,0.00,,,0.00,0,Wunderground v.1.15,2013-01-15 03:22:00,
2013-01-15 05:32:00,44.5,34.6,30.30,SSW,208,1.0,1.0,68,0.00,,,0.00,0,Wunderground v.1.15,2013-01-15 03:32:00,
2013-01-15 05:42:00,44.5,34.6,30.30,SSE,148,1.0,2.0,68,0.00,,,0.00,0,Wunderground v.1.15,2013-01-15 03:42:00,
2013-01-15 05:52:00,44.3,34.4,30.30,South,175,2.0,3.0,68,0.00,,,0.00,0,Wunderground v.1.15,2013-01-15 03:52:00,
2013-01-15 06:02:00,44.3,36.5,30.30,SSW,207,1.0,2.0,74,0.00,,,0.00,0,Wunderground v.1.15,2013-01-15 04:02:00,
2013-01-15 06:12:00,44.1,36.0,30.30,SSW,200,2.0,2.0,73,0.00,,,0.00,0,Wunderground v.1.15,2013-01-15 04:12:00,
2013-01-15 06:22:00,44.1,34.9,30.30,SSW,195,1.0,1.0,70,0.00,,,0.00,0,Wunderground v.1.15,2013-01-15 04:22:00,
2013-01-15 06:32:00,44.3,35.5,30.30,SSW,206,2.0,2.0,71,0.00,,,0.00,0,Wunderground v.1.15,2013-01-15 04:32:00,
2013-01-15 06:42:00,44.0,34.8,30.30,South,172,1.0,1.0,70,0.00,,,0.00,0,Wunderground v.1.15,2013-01-15 04:42:00,
2013-01-15 06:52:00,44.2,35.0,30.30,SW,223,2.0,2.0,70,0.00,,,0.00,0,Wunderground v.1.15,2013-01-15 04:52:00,
2013-01-15 07:02:00,44.1,34.6,30.30,SSW,208,1.0,1.0,69,0.00,,,0.00,0,Wunderground v.1.15,2013-01-15 05:02:00,
2013-01-15 07:12:00,44.1,34.6,30.29,South,186,1.0,1.0,69,0.00,,,0.00,0,Wunderground v.1.15,2013-01-15 05:12:00,
2013-01-15 07:22:00,44.2,34.3,30.29,SSW,197,2.0,2.0,68,0.00,,,0.00,7,Wunderground v.1.15,2013-01-15 05:22:00,
2013-01-15 07:32:00,44.5,35.0,30.30,SSW,204,2.0,3.0,69,0.00,,,0.00,12,Wunderground v.1.15,2013-01-15 05:32:00,
2013-01-15 07:42:00,44.7,34.4,30.30,South,178,3.0,3.0,67,0.00,,,0.00,25,Wunderground v.1.15,2013-01-15 05:42:00,
2013-01-15 07:52:00,45.1,36.3,30.30,WSW,248,2.0,4.0,71,0.00,,,0.00,39,Wunderground v.1.15,2013-01-15 05:52:00,
2013-01-15 08:02:00,45.4,34.7,30.30,SSW,202,2.0,2.0,66,0.00,,,0.00,51,Wunderground v.1.15,2013-01-15 06:02:00,
2013-01-15 08:12:00,45.7,36.5,30.30,SSW,210,2.0,2.0,70,0.00,,,0.00,47,Wunderground v.1.15,2013-01-15 06:12:00,
2013-01-15 08:22:00,46.0,34.9,30.30,South,188,2.0,2.0,65,0.00,,,0.00,77,Wunderground v.1.15,2013-01-15 06:22:00,
2013-01-15 08:32:00,46.3,35.6,30.30,South,175,2.0,2.0,66,0.00,,,0.00,102,Wunderground v.1.15,2013-01-15 06:32:00,
2013-01-15 08:42:00,46.7,35.6,30.30,SSW,210,2.0,3.0,65,0.00,,,0.00,151,Wunderground v.1.15,2013-01-15 06:42:00,
2013-01-15 08:52:00,47.3,35.3,30.30,South,178,2.0,2.0,63,0.00,,,0.00,193,Wunderground v.1.15,2013-01-15 06:52:00,
2013-01-15 09:02:00,48.1,36.1,30.30,SSW,210,2.0,2.0,63,0.00,,,0.00,246,Wunderground v.1.15,2013-01-15 07:02:00,
2013-01-15 09:12:00,49.0,36.1,30.30,West,277,2.0,2.0,61,0.00,,,0.00,279,Wunderground v.1.15,2013-01-15 07:12:00,
2013-01-15 09:22:00,49.1,36.2,30.30,WSW,242,2.0,2.0,61,0.00,,,0.00,234,Wunderground v.1.15,2013-01-15 07:22:00,
2013-01-15 09:32:00,49.0,35.7,30.29,SW,215,1.0,2.0,60,0.00,,,0.00,148,Wunderground v.1.15,2013-01-15 07:32:00,
2013-01-15 09:42:00,49.1,37.0,30.29,SSW,211,2.0,3.0,63,0.00,,,0.00,248,Wunderground v.1.15,2013-01-15 07:42:00,
2013-01-15 09:52:00,49.6,35.8,30.29,SW,225,2.0,2.0,59,0.00,,,0.00,385,Wunderground v.1.15,2013-01-15 07:52:00,
2013-01-15 10:02:00,50.3,36.1,30.29,SSE,167,2.0,3.0,58,0.00,,,0.00,260,Wunderground v.1.15,2013-01-15 08:02:00,
2013-01-15 10:12:00,50.7,36.0,30.29,South,169,3.0,3.0,57,0.00,,,0.00,285,Wunderground v.1.15,2013-01-15 08:12:00,
2013-01-15 10:22:00,51.5,35.9,30.29,SSE,157,2.0,2.0,55,0.00,,,0.00,401,Wunderground v.1.15,2013-01-15 08:22:00,
2013-01-15 10:32:00,52.1,35.9,30.29,SSE,164,3.0,3.0,54,0.00,,,0.00,387,Wunderground v.1.15,2013-01-15 08:32:00,
2013-01-15 10:42:00,52.8,36.1,30.28,South,175,3.0,3.0,53,0.00,,,0.00,387,Wunderground v.1.15,2013-01-15 08:42:00,
2013-01-15 10:52:00,52.8,36.1,30.28,SSE,154,4.0,4.0,53,0.00,,,0.00,413,Wunderground v.1.15,2013-01-15 08:52:00,
2013-01-15 11:12:00,53.1,35.4,30.27,South,173,5.0,5.0,51,0.00,,,0.00,422,Wunderground v.1.15,2013-01-15 09:12:00,
2013-01-15 11:32:00,54.0,34.7,30.26,South,181,4.0,4.0,48,0.00,,,0.00,413,Wunderground v.1.15,2013-01-15 09:32:00,
2013-01-15 11:42:00,54.3,36.5,30.26,SSW,192,4.0,7.0,51,0.00,,,0.00,432,Wunderground v.1.15,2013-01-15 09:42:00,
2013-01-15 11:52:00,54.5,34.7,30.25,NW,306,4.0,4.0,47,0.00,,,0.00,422,Wunderground v.1.15,2013-01-15 09:52:00,
2013-01-15 12:02:00,54.7,34.8,30.25,South,184,3.0,3.0,47,0.00,,,0.00,343,Wunderground v.1.15,2013-01-15 10:02:00,
2013-01-15 12:12:00,54.7,34.8,30.25,SSE,164,5.0,5.0,47,0.00,,,0.00,432,Wunderground v.1.15,2013-01-15 10:12:00,
2013-01-15 12:22:00,55.3,34.3,30.24,SSE,161,3.0,7.0,45,0.00,,,0.00,490,Wunderground v.1.15,2013-01-15 10:22:00,
2013-01-15 12:32:00,55.3,34.3,30.24,SE,130,5.0,5.0,45,0.00,,,0.00,494,Wunderground v.1.15,2013-01-15 10:32:00,
2013-01-15 12:42:00,55.9,34.8,30.24,South,175,4.0,5.0,45,0.00,,,0.00,424,Wunderground v.1.15,2013-01-15 10:42:00,
2013-01-15 12:52:00,56.0,34.4,30.23,SSW,198,4.0,4.0,44,0.00,,,0.00,376,Wunderground v.1.15,2013-01-15 10:52:00,
2013-01-15 13:02:00,56.3,34.6,30.23,South,169,4.0,6.0,44,0.00,,,0.00,480,Wunderground v.1.15,2013-01-15 11:02:00,
2013-01-15 13:12:00,56.1,33.9,30.23,SSW,210,5.0,5.0,43,0.00,,,0.00,434,Wunderground v.1.15,2013-01-15 11:12:00,
2013-01-15 13:32:00,55.9,34.3,30.23,South,183,4.0,4.0,44,0.00,,,0.00,246,Wunderground v.1.15,2013-01-15 11:32:00,
2013-01-15 13:42:00,55.7,34.1,30.22,SSW,202,4.0,4.0,44,0.00,,,0.00,330,Wunderground v.1.15,2013-01-15 11:42:00,
2013-01-15 13:52:00,55.5,34.5,30.22,SSW,211,5.0,5.0,45,0.00,,,0.00,302,Wunderground v.1.15,2013-01-15 11:52:00,
2013-01-15 14:02:00,56.0,35.5,30.21,South,185,3.0,3.0,46,0.00,,,0.00,427,Wunderground v.1.15,2013-01-15 12:02:00,
2013-01-15 14:12:00,56.7,35.0,30.21,West,265,2.0,6.0,44,0.00,,,0.00,271,Wunderground v.1.15,2013-01-15 12:12:00,
2013-01-15 14:22:00,56.3,34.6,30.21,South,184,3.0,5.0,44,0.00,,,0.00,306,Wunderground v.1.15,2013-01-15 12:22:00,
2013-01-15 14:32:00,56.9,35.2,30.21,WSW,242,2.0,3.0,44,0.00,,,0.00,290,Wunderground v.1.15,2013-01-15 12:32:00,
2013-01-15 14:52:00,57.1,34.8,30.21,SSE,150,3.0,3.0,43,0.00,,,0.00,299,Wunderground v.1.15,2013-01-15 12:52:00,
2013-01-15 15:02:00,56.9,33.4,30.21,WSW,249,3.0,3.0,41,0.00,,,0.00,237,Wunderground v.1.15,2013-01-15 13:02:00,
2013-01-15 15:12:00,56.5,33.1,30.21,SSW,202,3.0,4.0,41,0.00,,,0.00,229,Wunderground v.1.15,2013-01-15 13:12:00,
2013-01-15 15:22:00,56.6,33.2,30.21,South,175,3.0,3.0,41,0.00,,,0.00,227,Wunderground v.1.15,2013-01-15 13:22:00,
2013-01-15 15:32:00,56.8,32.7,30.21,SSW,198,3.0,10.0,40,0.00,,,0.00,185,Wunderground v.1.15,2013-01-15 13:32:00,
2013-01-15 15:42:00,56.4,33.6,30.21,SSW,196,4.0,5.0,42,0.00,,,0.00,114,Wunderground v.1.15,2013-01-15 13:42:00,
2013-01-15 15:52:00,55.8,34.2,30.21,SSW,205,3.0,3.0,44,0.00,,,0.00,98,Wunderground v.1.15,2013-01-15 13:52:00,
2013-01-15 16:02:00,56.0,34.4,30.21,SW,219,2.0,2.0,44,0.00,,,0.00,107,Wunderground v.1.15,2013-01-15 14:02:00,
2013-01-15 16:22:00,54.8,34.9,30.21,SW,216,2.0,3.0,47,0.00,,,0.00,40,Wunderground v.1.15,2013-01-15 14:22:00,
2013-01-15 16:32:00,54.2,36.5,30.21,SW,224,2.0,2.0,51,0.00,,,0.00,21,Wunderground v.1.15,2013-01-15 14:32:00,
2013-01-15 16:42:00,53.5,35.3,30.21,SSW,205,2.0,2.0,50,0.00,,,0.00,16,Wunderground v.1.15,2013-01-15 14:42:00,
2013-01-15 16:52:00,53.2,34.5,30.21,SSW,207,2.0,3.0,49,0.00,,,0.00,9,Wunderground v.1.15,2013-01-15 14:52:00,
2013-01-15 17:02:00,52.9,34.8,30.21,SW,219,2.0,2.0,50,0.00,,,0.00,0,Wunderground v.1.15,2013-01-15 15:02:00,
2013-01-15 17:12:00,52.7,35.1,30.21,South,186,2.0,2.0,51,0.00,,,0.00,0,Wunderground v.1.15,2013-01-15 15:12:00,
2013-01-15 17:22:00,52.6,35.9,30.21,SSW,213,2.0,2.0,53,0.00,,,0.00,0,Wunderground v.1.15,2013-01-15 15:22:00,
2013-01-15 17:32:00,52.4,35.3,30.21,SSW,213,2.0,3.0,52,0.00,,,0.00,0,Wunderground v.1.15,2013-01-15 15:32:00,
2013-01-15 17:52:00,51.9,34.8,30.20,SSE,161,3.0,3.0,52,0.00,,,0.00,0,Wunderground v.1.15,2013-01-15 15:52:00,
2013-01-15 18:02:00,51.7,35.1,30.20,South,176,2.0,3.0,53,0.00,,,0.00,0,Wunderground v.1.15,2013-01-15 16:02:00,
2013-01-15 18:12:00,51.7,35.6,30.20,South,171,1.0,1.0,54,0.00,,,0.00,0,Wunderground v.1.15,2013-01-15 16:12:00,
2013-01-15 18:22:00,51.4,35.8,30.20,SE,140,2.0,3.0,55,0.00,,,0.00,0,Wunderground v.1.15,2013-01-15 16:22:00,
2013-01-15 18:32:00,51.1,35.9,30.20,SSW,213,1.0,2.0,56,0.00,,,0.00,0,Wunderground v.1.15,2013-01-15 16:32:00,
2013-01-15 18:42:00,50.9,36.2,30.20,SSW,207,3.0,3.0,57,0.00,,,0.00,0,Wunderground v.1.15,2013-01-15 16:42:00,
2013-01-15 18:52:00,50.8,36.1,30.20,SSW,211,2.0,3.0,57,0.00,,,0.00,0,Wunderground v.1.15,2013-01-15 16:52:00,
2013-01-15 19:02:00,50.7,36.5,30.20,SSW,198,2.0,3.0,58,0.00,,,0.00,0,Wunderground v.1.15,2013-01-15 17:02:00,
2013-01-15 19:22:00,50.7,36.9,30.19,WSW,253,2.0,3.0,59,0.00,,,0.00,0,Wunderground v.1.15,2013-01-15 17:22:00,
2013-01-15 19:32:00,50.8,36.5,30.20,SSW,205,2.0,3.0,58,0.00,,,0.00,0,Wunderground v.1.15,2013-01-15 17:32:00,
2013-01-15 19:42:00,50.8,36.5,30.20,SSW,205,1.0,2.0,58,0.00,,,0.00,0,Wunderground v.1.15,2013-01-15 17:42:00,
2013-01-15 19:52:00,50.8,36.1,30.19,South,174,2.0,2.0,57,0.00,,,0.00,0,Wunderground v.1.15,2013-01-15 17:52:00,
2013-01-15 20:02:00,50.9,36.2,30.19,SW,215,2.0,3.0,57,0.00,,,0.00,0,Wunderground v.1.15,2013-01-15 18:02:00,
2013-01-15 20:22:00,50.7,36.0,30.19,WSW,252,2.0,2.0,57,0.00,,,0.00,0,Wunderground v.1.15,2013-01-15 18:22:00,
2013-01-15 20:32:00,50.5,35.4,30.18,WSW,254,1.0,3.0,56,0.00,,,0.00,0,Wunderground v.1.15,2013-01-15 18:32:00,
2013-01-15 20:42:00,50.5,35.8,30.18,SW,225,1.0,1.0,57,0.00,,,0.00,0,Wunderground v.1.15,2013-01-15 18:42:00,
2013-01-15 20:52:00,50.4,35.3,30.18,WSW,250,4.0,4.0,56,0.00,,,0.00,0,Wunderground v.1.15,2013-01-15 18:52:00,
2013-01-15 21:02:00,50.5,35.4,30.18,WSW,247,2.0,3.0,56,0.00,,,0.00,0,Wunderground v.1.15,2013-01-15 19:02:00,
2013-01-15 21:12:00,50.4,35.3,30.18,WSW,248,4.0,4.0,56,0.00,,,0.00,0,Wunderground v.1.15,2013-01-15 19:12:00,
2013-01-15 21:22:00,50.4,34.8,30.17,WSW,254,3.0,5.0,55,0.00,,,0.00,0,Wunderground v.1.15,2013-01-15 19:22:00,
2013-01-15 21:32:00,50.5,34.5,30.17,SW,231,3.0,5.0,54,0.00,,,0.00,0,Wunderground v.1.15,2013-01-15 19:32:00,
2013-01-15 21:42:00,50.5,34.5,30.17,West,263,2.0,3.0,54,0.00,,,0.00,0,Wunderground v.1.15,2013-01-15 19:42:00,
2013-01-15 21:52:00,50.4,34.8,30.17,South,169,3.0,3.0,55,0.00,,,0.00,0,Wunderground v.1.15,2013-01-15 19:52:00,
2013-01-15 22:12:00,50.0,34.5,30.16,South,172,2.0,3.0,55,0.00,,,0.00,0,Wunderground v.1.15,2013-01-15 20:12:00,
2013-01-15 22:22:00,50.0,34.5,30.16,SSW,204,2.0,2.0,55,0.00,,,0.00,0,Wunderground v.1.15,2013-01-15 20:22:00,
2013-01-15 22:42:00,49.9,34.4,30.15,South,181,2.0,2.0,55,0.00,,,0.00,0,Wunderground v.1.15,2013-01-15 20:42:00,
2013-01-15 22:52:00,49.9,34.8,30.15,WSW,254,1.0,4.0,56,0.00,,,0.00,0,Wunderground v.1.15,2013-01-15 20:52:00,
2013-01-15 23:02:00,49.8,34.3,30.15,SE,146,2.0,2.0,55,0.00,,,0.00,0,Wunderground v.1.15,2013-01-15 21:02:00,
2013-01-15 23:12:00,49.6,35.4,30.15,SSE,168,3.0,3.0,58,0.00,,,0.00,0,Wunderground v.1.15,2013-01-15 21:12:00,
2013-01-15 23:22:00,49.6,35.0,30.15,SSW,200,3.0,3.0,57,0.00,,,0.00,0,Wunderground v.1.15,2013-01-15 21:22:00,
2013-01-15 23:32:00,49.4,34.8,30.14,SSW,198,3.0,4.0,57,0.00,,,0.00,0,Wunderground v.1.15,2013-01-15 21:32:00,
2013-01-15 23:42:00,49.4,34.8,30.14,SSE,166,3.0,3.0,57,0.00,,,0.00,0,Wunderground v.1.15,2013-01-15 21:42:00,
2013-01-15 23:52:00,49.3,34.3,30.14,WSW,248,3.0,3.0,56,0.00,,,0.00,0,Wunderground v.1.15,2013-01-15 21:52:00,